RH
13 12 11 10 10 10 10 9 9 8 7 7 7 8 8 8 7 7 7 7 7 6 6 6 6 6 5 5 5 4 5 5 5 6 8 10 13 12 13 15 17 20 20 26 36 36 35 33 33 37 43 53 61 70 73 72 76 79 83 87 89 84 80 81 77 77 76 69 71 73 67 59 61 61 58 59 55 53 57 61 59 55 56 48 35 31 32 31
14 14 13 12 12 11 11 10 10 9 8 8 7 8 8 8 8 8 7 7 7 7 6 6 6 6 5 5 4 4 4 5 5 6 6 8 10 10 10 13 17 18 19 28 36 32 31 30 32 36 43 55 61 67 72 72 74 77 83 87 87 83 80 80 76 78 74 68 74 76 69 61 59 56 57 63 55 50 54 57 56 53 52 41 31 34 33 31
14 14 15 15 14 14 13 12 12 11 11 10 9 9 9 9 9 9 8 8 8 7 6 6 6 6 5 4 4 4 3 5 9 9 8 9 8 9 9 11 16 17 19 28 32 29 28 29 31 35 44 58 62 66 71 72 74 77 82 83 80 79 80 78 75 79 76 71 74 74 72 66 61 56 58 60 52 52 55 55 51 44 42 35 33 36 32 33
13 12 13 14 14 14 14 14 13 13 12 12 12 11 11 10 10 10 9 9 8 8 7 7 6 6 5 4 4 4 5 9 13 13 12 10 8 9 8 10 14 14 19 28 28 27 27 28 30 34 49 62 62 65 69 72 77 78 76 76 75 73 75 77 75 76 76 74 74 73 70 66 63 61 61 58 55 61 60 57 49 37 35 33 34 35 31 32
11 11 11 12 13 13 13 13 13 12 12 12 12 11 11 11 11 11 10 10 9 8 8 7 7 6 4 4 4 4 7 12 16 16 13 9 8 9 7 9 12 12 20 27 25 26 26 28 29 35 51 62 63 65 68 71 75 77 72 69 70 68 69 74 74 74 75 74 75 74 68 65 64 63 63 62 62 64 60 57 49 36 32 30 31 34 30 30
12 12 11 11 11 12 13 13 13 13 12 12 11 11 11 11 11 11 11 11 10 9 9 8 8 6 4 5 4 4 10 16 18 16 11 8 8 8 7 9 11 11 21 24 23 24 25 28 29 35 49 56 60 64 69 71 70 74 72 64 64 63 64 69 70 73 75 75 74 74 70 66 65 66 66 65 65 63 57 56 48 36 32 31 30 32 29 30
13 13 12 12 12 12 12 13 13 13 13 12 11 11 11 11 11 11 11 11 10 10 9 9 7 6 6 4 4 6 10 16 18 14 9 7 7 7 7 10 10 12 20 21 21 22 23 28 29 37 47 49 56 62 67 69 68 71 68 62 61 59 59 62 65 71 74 74 75 75 73 69 68 70 69 64 63 61 56 54 49 39 33 32 32 32 29 29
14 13 13 13 12 12 12 12 12 13 12 12 11 10 10 10 11 10 11 10 11 10 9 9 8 7 6 5 8 10 10 13 14 12 8 5 6 6 8 10 10 15 19 17 19 19 21 26 29 37 41 44 55 59 62 66 66 67 66 63 59 57 56 56 60 68 72 72 75 75 72 73 70 67 68 66 60 59 56 50 46 40 34 32 31 32 29 29
14 14 14 13 12 12 11 12 12 12 12 12 11 10 10 10 10 10 10 10 10 10 10 9 7 7 6 6 9 11 14 14 10 9 7 5 5 6 9 11 14 19 17 14 16 17 20 25 28 33 33 38 51 55 59 66 68 66 65 61 56 55 55 53 56 64 72 73 75 75 70 76 73 64 68 66 55 55 55 47 42 39 36 33 32 33 29 30
14 14 13 13 12 12 11 11 11 11 11 11 11 11 10 10 10 10 10 10 10 10 10 9 7 7 6 8 10 13 18 16 8 8 8 5 4 6 12 15 18 20 14 11 14 15 20 23 25 28 28 33 41 49 57 64 67 64 61 58 54 54 55 55 56 62 72 73 75 76 72 75 70 65 70 64 54 55 54 45 40 38 38 38 37 36 32 32
14 13 12 12 11 11 11 11 11 11 11 11 11 11 11 10 10 10 10 9 9 10 10 8 7 6 7 12 14 17 20 16 10 10 10 8 5 7 15 17 18 18 12 10 11 14 20 23 23 25 28 32 35 45 55 59 62 61 59 57 53 54 55 56 58 64 73 73 74 76 73 75 70 68 70 62 57 56 52 46 40 40 41 42 43 39 34 34
13 12 11 11 10 10 10 10 10 10 10 10 11 11 11 11 10 9 9 9 9 9 9 8 8 7 11 16 16 19 21 16 12 12 12 12 10 10 15 16 17 17 13 12 11 13 19 22 24 24 27 31 33 42 52 56 58 59 59 56 52 54 56 58 62 68 74 73 74 73 73 76 72 68 65 60 58 56 53 48 43 44 42 41 45 40 35 33
12 12 12 11 10 9 9 9 9 10 9 9 9 10 11 11 10 10 9 8 8 8 8 9 9 8 15 19 14 16 19 15 13 12 15 16 13 12 14 15 17 17 15 15 12 13 17 20 22 24 27 31 35 41 48 52 56 58 58 55 52 54 57 60 64 68 75 75 74 75 75 76 73 68 64 60 59 57 55 53 48 48 44 40 41 39 37 34
13 13 13 12 10 9 8 8 8 9 9 9 9 10 11 11 11 10 9 8 7 8 8 10 11 13 20 22 16 14 17 15 14 13 15 17 14 12 12 14 16 17 16 16 14 13 14 15 18 22 27 31 35 38 43 49 55 57 58 57 51 52 56 58 62 71 76 75 73 73 74 76 73 69 68 66 63 60 57 56 53 49 46 42 38 37 39 36
15 14 13 12 11 9 8 7 8 8 8 8 8 9 9 10 11 10 9 9 8 8 10 11 12 16 21 21 16 14 15 15 14 14 15 17 14 11 12 13 15 17 16 14 14 12 10 12 15 21 28 30 33 36 39 46 54 55 56 57 51 49 55 54 60 71 73 74 74 72 74 77 73 68 71 71 68 65 59 57 56 52 49 43 38 37 39 38
15 13 12 12 10 9 7 7 7 8 8 8 8 9 9 10 10 9 10 11 10 9 11 14 14 16 23 24 18 13 14 16 15 15 16 17 15 11 11 11 13 16 16 14 13 10 9 10 13 20 26 28 32 35 39 46 52 55 53 56 52 49 54 54 58 68 69 73 75 73 75 76 73 68 69 72 72 69 61 56 57 56 52 45 39 36 37 39
14 13 12 11 10 9 8 7 7 7 8 8 9 8 8 10 10 9 11 12 12 10 13 20 17 17 24 26 20 14 18 21 17 15 16 18 19 15 11 11 12 15 17 16 13 9 8 10 13 18 22 25 29 32 40 45 49 54 52 53 54 50 55 55 56 65 70 74 73 73 76 75 75 72 69 73 74 70 64 57 56 57 54 47 41 38 37 38
14 12 11 11 10 9 7 7 7 8 8 8 9 9 8 10 10 10 13 14 14 13 15 18 16 21 26 22 19 20 25 25 18 16 17 18 21 17 12 12 12 14 18 18 14 11 8 9 13 17 20 24 27 28 36 42 45 51 50 52 55 51 55 57 54 60 70 76 73 72 77 76 76 73 72 74 71 70 70 63 58 56 55 49 43 42 40 37
13 12 11 11 10 8 8 7 8 8 8 9 9 9 9 10 10 12 16 17 17 19 21 17 15 26 29 21 21 25 27 23 17 18 18 18 19 16 14 13 11 13 18 19 16 13 10 11 14 16 19 24 26 26 30 38 45 49 50 53 54 50 54 58 56 55 62 73 75 74 79 79 78 75 74 76 71 71 71 67 63 57 53 50 46 46 43 38
13 13 12 12 10 9 8 7 9 8 8 10 10 11 15 17 17 20 20 17 16 21 24 19 17 26 29 24 23 23 23 20 19 20 19 19 19 17 17 15 13 14 18 19 17 15 12 11 14 15 16 21 25 27 30 36 44 47 50 54 51 48 52 57 61 57 55 67 76 77 78 80 81 77 77 77 74 72 68 66 68 62 56 53 48 48 46 42
13 14 14 14 12 9 9 9 10 9 10 11 11 15 22 20 20 24 21 15 14 17 21 20 21 27 29 25 21 18 20 21 25 24 19 19 21 21 21 17 15 16 17 19 17 16 14 12 14 12 14 21 23 28 32 35 41 43 47 52 50 48 51 53 58 58 54 62 76 79 79 81 81 77 78 78 73 70 67 64 67 66 65 61 52 49 48 45
14 15 15 14 12 10 9 10 11 10 11 12 12 17 21 15 16 21 20 17 15 14 17 20 21 25 24 22 19 18 19 21 26 27 21 19 21 24 23 19 18 15 16 19 18 17 14 11 13 11 17 27 26 28 34 35 38 40 42 48 50 46 45 44 48 53 52 58 71 75 77 81 80 74 76 76 70 70 71 68 66 66 66 65 61 55 48 47
15 15 15 15 13 11 10 12 12 11 12 14 16 19 18 13 14 16 15 19 20 14 15 19 21 22 20 19 19 17 19 20 24 27 22 19 21 24 24 21 19 17 17 19 19 19 15 11 14 14 19 29 32 32 34 34 37 40 42 45 49 46 42 41 42 49 51 52 59 62 63 69 72 71 69 66 65 70 75 71 65 63 61 61 66 63 52 49
14 13 14 14 13 13 12 12 12 12 14 16 18 17 16 15 15 15 15 21 24 17 16 20 22 25 22 18 16 17 22 22 24 27 20 18 22 22 23 24 22 21 20 20 20 20 16 12 13 16 23 31 35 32 30 33 37 39 40 43 48 48 44 42 43 47 49 48 50 52 54 58 61 64 64 61 60 67 72 69 64 63 62 61 62 62 60 55
13 13 14 13 14 15 13 13 14 15 16 17 18 16 15 17 16 16 16 21 25 20 18 21 22 24 21 17 17 21 25 24 26 27 19 19 23 19 21 24 23 24 23 21 20 21 19 15 14 22 30 31 32 30 27 32 37 37 37 40 45 48 45 42 41 43 46 45 46 49 52 53 52 56 62 62 58 61 67 66 64 64 67 67 63 62 64 63
13 13 14 13 14 16 16 17 15 14 17 19 19 16 17 18 17 18 18 23 28 22 20 23 22 23 21 18 21 22 23 25 27 26 18 19 23 19 20 24 23 25 25 21 21 20 20 21 24 30 31 23 23 27 26 28 33 35 36 37 41 46 46 42 38 41 43 43 44 49 51 52 53 56 62 65 61 62 66 64 64 65 67 69 68 68 66 64
14 14 14 15 14 15 17 17 14 15 21 22 19 16 19 20 17 19 22 29 32 26 24 27 24 24 22 21 22 21 23 26 25 23 18 18 20 18 21 25 26 28 26 22 22 21 22 27 32 33 30 23 20 24 25 24 30 35 36 36 38 42 45 43 40 42 43 41 42 46 48 52 58 59 60 64 65 66 65 62 65 70 70 67 68 72 70 66
16 15 16 16 15 15 16 16 16 19 22 20 18 18 20 19 17 22 29 36 36 29 28 28 23 23 23 21 21 22 27 27 23 23 18 16 18 18 23 26 25 29 27 22 23 23 25 31 34 31 29 26 21 21 24 23 26 35 36 36 38 39 42 41 42 44 44 42 41 43 44 51 62 63 58 62 65 66 65 63 67 72 75 73 69 68 71 69
18 17 18 17 17 18 16 16 18 21 20 18 19 20 20 19 19 24 35 42 38 29 28 26 21 22 23 21 22 25 28 27 26 26 18 15 17 18 24 26 23 28 28 21 25 29 29 30 34 32 28 28 24 22 26 24 23 31 34 36 38 37 38 39 42 45 45 45 44 41 41 48 61 65 62 65 65 62 62 63 65 67 71 76 71 65 67 68
19 19 19 18 20 20 19 19 18 19 20 20 21 22 21 21 23 31 38 40 36 29 25 24 21 23 23 22 23 25 27 28 28 26 19 16 17 17 23 26 23 28 28 22 27 34 34 31 32 32 29 29 28 26 29 25 21 27 31 33 34 33 34 36 39 43 46 47 43 39 40 45 58 70 69 67 64 58 59 61 62 61 63 68 66 62 66 68
20 20 19 19 20 20 21 23 21 20 20 21 23 23 22 24 31 41 42 36 32 28 23 23 22 22 23 23 24 25 26 28 27 25 21 19 18 18 23 25 25 29 28 24 27 30 31 31 31 32 30 28 27 29 30 23 20 27 29 28 29 30 31 32 34 38 44 47 41 37 40 41 53 71 72 65 61 58 57 59 60 59 59 61 60 62 70 71
21 21 20 20 20 19 22 24 23 20 20 22 24 25 31 37 36 40 41 34 31 27 25 25 22 21 24 25 26 25 26 27 27 26 24 21 19 19 22 22 23 27 25 22 23 25 26 28 28 29 29 28 27 28 27 21 23 28 25 23 24 26 29 32 32 33 37 39 38 37 39 40 49 62 65 61 59 58 57 58 58 58 57 58 59 62 68 69
21 21 20 20 19 20 22 23 23 21 21 25 26 28 40 50 44 37 35 33 30 28 27 25 22 24 28 30 29 26 26 28 28 28 26 24 23 21 22 22 21 26 28 23 21 22 22 23 23 22 24 26 26 25 24 20 22 24 20 19 20 23 29 31 30 31 30 30 32 33 37 46 54 60 61 59 58 59 59 56 55 55 52 54 59 61 64 64
21 21 21 21 20 19 19 20 22 24 25 27 30 36 45 50 43 34 32 30 29 28 25 22 22 24 29 32 31 26 27 29 28 27 25 23 24 23 23 22 21 25 32 29 21 19 19 19 19 18 19 21 21 22 22 20 19 18 18 17 17 22 27 26 27 31 28 25 28 32 37 48 56 59 59 57 55 58 60 56 54 54 51 51 55 59 63 64
21 21 21 21 21 20 20 19 19 22 27 29 36 46 49 45 37 33 33 29 25 25 22 22 23 24 28 33 31 26 27 29 25 25 27 26 28 29 25 23 23 23 28 32 25 18 21 21 17 17 17 18 18 20 21 19 19 19 18 18 19 23 25 22 23 28 26 26 29 33 39 47 53 57 56 53 54 56 58 58 56 56 54 51 50 54 60 64
22 23 24 23 22 22 22 21 19 22 27 33 42 47 45 40 35 33 31 26 25 24 22 23 24 26 29 30 27 24 25 26 24 26 31 32 32 31 24 23 25 21 24 33 28 22 26 26 18 16 17 16 16 18 19 20 23 22 19 18 20 25 28 26 25 25 25 27 29 32 41 45 49 58 57 51 51 53 57 59 57 59 60 53 48 48 52 59
22 25 26 23 21 21 22 23 23 26 30 36 43 41 36 34 31 29 27 26 27 25 24 26 26 28 30 27 24 23 23 23 22 24 28 28 28 27 21 21 24 22 24 30 29 29 32 27 18 17 18 16 14 16 18 19 22 24 22 23 24 25 28 30 30 26 23 24 24 30 43 45 45 55 57 51 50 50 53 57 59 62 61 54 50 48 48 51
20 25 26 22 21 21 21 24 26 29 35 38 37 31 29 30 29 27 28 28 28 27 30 32 30 31 32 30 27 23 21 23 23 25 27 26 26 25 21 21 22 22 23 26 30 33 33 27 20 17 18 17 14 15 17 16 19 23 25 27 26 24 25 28 32 30 25 23 22 27 41 44 42 50 55 54 53 49 48 53 58 62 58 51 51 51 49 48
21 27 28 23 21 20 21 25 28 34 42 42 36 30 29 30 29 30 30 30 31 31 36 38 34 33 34 34 32 24 22 28 28 28 31 28 26 26 22 21 21 20 22 25 29 30 29 29 24 18 17 18 15 15 17 17 17 20 21 21 22 26 27 25 28 31 29 26 24 26 37 45 43 49 58 59 53 46 45 48 53 60 57 50 50 52 52 50
21 27 28 22 20 20 21 27 32 37 42 39 34 32 30 29 30 32 32 33 35 34 37 41 36 34 35 35 33 26 24 30 32 32 32 28 28 27 23 22 21 19 19 22 23 24 25 28 28 21 16 17 17 16 19 21 19 19 19 20 20 23 26 27 27 29 28 26 22 22 37 50 48 49 57 58 51 45 43 44 48 56 58 51 48 50 52 52
23 30 27 20 19 20 24 31 34 35 36 33 32 32 31 31 32 33 33 35 37 35 38 41 38 36 36 35 34 29 26 29 31 32 31 28 28 27 24 23 21 19 20 21 21 23 25 27 29 24 18 19 21 18 18 21 21 19 18 21 22 20 22 27 29 28 25 24 23 23 36 52 54 51 52 49 46 43 41 41 44 52 57 52 46 47 50 52
25 29 25 18 17 21 27 32 31 32 33 32 32 32 31 32 32 31 34 37 37 37 38 41 41 39 37 37 36 32 28 30 31 31 31 29 27 26 24 23 22 21 22 22 20 22 24 26 31 31 26 24 21 17 17 19 20 19 19 22 27 27 26 27 29 30 26 24 29 32 41 53 56 52 50 45 41 40 40 42 43 48 55 52 44 44 48 50
23 23 20 17 16 21 29 31 28 28 30 29 31 32 31 32 32 31 33 35 36 38 39 41 42 42 40 40 40 36 35 37 37 34 34 31 26 24 24 23 24 24 24 24 21 20 21 25 32 36 30 23 19 18 18 19 18 18 19 21 25 29 31 30 31 34 32 29 31 36 47 57 56 51 50 47 44 40 39 40 40 44 53 54 47 44 46 49
22 20 19 17 17 21 29 32 29 27 26 26 29 31 32 33 33 31 33 34 34 34 36 36 37 40 41 41 42 42 41 43 42 38 36 33 28 26 25 23 25 25 24 26 24 20 21 26 30 34 29 22 21 19 18 19 19 18 20 20 22 24 25 25 28 32 35 36 32 33 48 59 56 52 50 48 46 42 38 38 38 42 50 55 52 45 44 48
24 26 22 17 17 21 26 28 28 25 23 24 26 27 29 30 31 31 31 32 32 32 33 33 33 35 36 37 39 40 40 43 44 40 38 36 31 28 27 25 25 23 22 25 24 21 26 29 29 34 36 32 28 25 23 21 19 20 21 20 20 20 19 22 25 27 32 37 34 37 50 58 55 53 51 47 46 44 40 38 38 40 46 53 55 49 44 46
27 31 27 20 17 19 20 20 24 26 25 25 25 24 25 26 26 27 28 28 29 30 31 31 32 34 34 35 37 36 36 38 40 40 38 37 33 30 29 27 25 23 23 24 22 21 27 28 27 35 42 41 37 32 26 22 20 20 21 19 19 19 19 19 22 27 32 33 38 45 49 51 53 54 52 48 46 45 42 40 40 41 42 47 51 49 44 44
23 25 24 24 22 21 21 19 19 24 25 26 26 24 23 24 23 23 24 25 25 24 26 28 30 33 35 37 37 37 36 36 37 38 38 37 35 32 31 30 27 26 26 24 22 22 26 26 25 28 32 34 34 30 25 23 23 22 21 19 19 19 20 20 22 28 31 30 39 49 46 45 50 52 49 47 45 46 43 40 41 42 42 44 47 47 43 42
20 18 18 21 24 24 24 21 18 19 20 20 21 20 20 21 22 23 23 23 23 24 25 26 27 30 34 35 38 39 39 38 39 39 38 37 34 32 33 33 30 29 29 25 23 24 26 28 27 24 23 26 28 27 25 24 24 23 21 19 19 19 22 25 26 27 29 31 41 49 46 44 48 50 50 47 44 47 47 44 43 44 43 44 45 43 41 41
21 21 16 15 21 22 19 18 19 20 19 19 20 20 19 18 19 20 20 21 23 24 27 28 27 27 28 31 37 40 40 41 43 41 39 38 36 35 36 35 32 31 30 29 27 24 26 31 28 23 22 23 23 24 24 23 23 22 20 19 19 19 21 24 25 24 28 33 40 45 47 48 49 51 53 50 47 48 50 48 46 45 45 46 44 38 36 39
23 24 21 19 21 19 18 20 21 20 18 19 22 20 20 21 20 19 20 21 21 22 23 26 26 26 28 30 34 37 37 40 42 40 39 38 36 36 38 36 34 32 30 31 30 25 28 33 29 22 23 22 20 20 20 20 20 19 19 18 18 18 19 21 23 24 27 32 36 39 44 50 52 52 51 50 50 50 51 51 49 47 46 48 46 39 34 36
18 17 20 26 23 17 19 20 20 23 23 23 24 22 22 23 22 21 21 21 22 22 21 22 24 25 27 29 31 32 31 31 33 32 31 32 31 31 32 31 30 30 29 31 30 27 27 31 27 22 23 25 22 18 17 18 18 17 18 18 17 17 19 19 20 23 26 31 37 39 42 48 51 50 50 50 49 48 49 50 51 49 48 49 46 39 36 36
18 16 18 24 23 18 20 20 18 26 29 23 22 24 24 23 22 23 24 22 22 24 22 23 24 24 28 31 31 29 28 28 28 27 26 25 25 24 24 24 23 25 27 28 28 28 28 28 26 21 21 25 24 20 17 16 16 16 16 16 17 17 18 19 21 23 26 30 35 39 44 48 49 48 49 49 48 47 48 49 51 50 49 49 46 38 36 38